Location: Alvediston
(51.0078°N, 2.0364°W)
Time: 08:09:14
(UTC+00:00)

Cosmos 2219 - Pass Details

Date: 27 February 2020
Orbit: 832 x 862 km, 71.1° (Epoch: 27 March)

Event Time Altitude Azimuth Distance (km) Brightness Sun altitude
Rises 20:23:59 0° 327° (NNW) 3,444 7.2 -25.5°
Reaches altitude 10° 20:26:29 10° 323° (NW) 2,506 6.4 -25.9°
Maximum altitude 20:32:03 52° 249° (WSW) 1,067 3.9 -26.7°
Enters shadow 20:34:18 33° 193° (SSW) 1,409 4.2 -27.0°
